N8IR-19 Weather Reports


Display with metric or nautical units.
time (UTC)temp
F
wind
direction
speed
MPH
gust
MPH
rain 1hr
in
rain 24hr
in
rain mn
in
humidity
%
barometer
mb
20260905232620 74 0 14.0 21.0 0.00 0.00 0.00 47 995.2
20260905232138 74 0 16.0 21.0 0.00 0.00 0.00 46 995.2
20260905231620 74 45 14.0 18.0 0.00 0.00 0.00 45 995.3
20260905231120 74 0 16.0 20.0 0.00 0.00 0.00 45 995.2
20260905230620 74 0 14.0 16.0 0.00 0.00 0.00 48 995.2
20260905230120 74 0 16.0 18.0 0.00 0.00 0.00 46 995.2
20260905225621 74 0 13.0 18.0 0.00 0.00 0.00 47 995.4
20260905225121 74 0 14.0 20.0 0.00 0.00 0.00 46 995.4
20260905224617 74 68 13.0 18.0 0.00 0.00 0.00 49 995.3
20260905224119 74 0 14.0 18.0 0.00 0.00 0.00 48 995.3
20260905223619 74 0 15.0 19.0 0.00 0.00 0.00 50 995.1
20260905223140 74 0 13.0 17.0 0.00 0.00 0.00 50 995.1
20260905222621 74 0 16.0 20.0 0.00 0.00 0.00 49 995.1
20260905222120 74 0 11.0 14.0 0.00 0.00 0.00 49 995.1
20260905221640 74 68 14.0 17.0 0.00 0.00 0.00 49 995.1
20260905221117 74 0 15.0 18.0 0.00 0.00 0.00 49 995.1
20260905220620 74 0 18.0 21.0 0.00 0.00 0.00 49 995.1
20260905220117 74 0 19.0 21.0 0.00 0.00 0.00 51 995.1
20260905215618 74 0 12.0 15.0 0.00 0.00 0.00 52 994.9
20260905215117 74 0 15.0 19.0 0.00 0.00 0.00 50 994.9
20260905214618 74 0 17.0 19.0 0.00 0.00 0.00 51 994.8
20260905214118 74 0 18.0 22.0 0.00 0.00 0.00 52 994.7
20260905213618 74 0 18.0 21.0 0.00 0.00 0.00 51 994.7
20260905213118 74 45 14.0 18.0 0.00 0.00 0.00 52 994.6
20260905212617 73 0 17.0 18.0 0.00 0.00 0.00 50 994.7
20260905212137 74 0 18.0 21.0 0.00 0.00 0.00 51 994.7
20260905211618 74 0 17.0 19.0 0.00 0.00 0.00 51 994.8
20260905211119 74 0 17.0 20.0 0.00 0.00 0.00 52 994.8
20260905210618 74 0 18.0 21.0 0.00 0.00 0.00 51 994.9
20260905210138 74 0 18.0 20.0 0.00 0.00 0.00 51 994.9
20260905205617 74 45 15.0 18.0 0.00 0.00 0.00 50 995.0
20260905205119 74 68 12.0 15.0 0.00 0.00 0.00 51 994.9
20260905204637 74 45 15.0 18.0 0.00 0.00 0.00 52 994.9
20260905204117 74 45 15.0 17.0 0.00 0.00 0.00 51 994.9
20260905203618 74 45 16.0 19.0 0.00 0.00 0.00 51 995.0
20260905203118 74 45 17.0 19.0 0.00 0.00 0.00 51 995.0
20260905202617 74 0 17.0 19.0 0.00 0.00 0.00 51 995.1
20260905202118 74 0 17.0 19.0 0.00 0.00 0.00 50 995.1
20260905201638 74 0 14.0 18.0 0.00 0.00 0.00 50 995.1
20260905201117 74 0 18.0 21.0 0.00 0.00 0.00 51 995.1
20260905200637 74 0 16.0 20.0 0.00 0.00 0.00 51 995.1
20260905200117 74 0 18.0 20.0 0.00 0.00 0.00 50 995.1
20260905195617 74 68 17.0 20.0 0.00 0.00 0.00 50 995.1
20260905195138 74 45 19.0 20.0 0.00 0.00 0.00 51 995.1
20260905194617 74 45 17.0 19.0 0.00 0.00 0.00 51 995.0
20260905194137 74 45 15.0 19.0 0.00 0.00 0.00 51 995.0
20260905193617 74 45 12.0 18.0 0.00 0.00 0.00 51 995.1
20260905193117 74 68 17.0 19.0 0.00 0.00 0.00 50 995.0
20260905192658 74 45 16.0 19.0 0.00 0.00 0.00 50 995.1
20260905192117 74 45 16.0 18.0 0.00 0.00 0.00 50 995.1
20260905191617 74 68 11.0 15.0 0.00 0.00 0.00 51 995.1
20260905191118 74 68 11.0 14.0 0.00 0.00 0.00 51 995.2
20260905190638 74 68 13.0 17.0 0.00 0.00 0.00 51 995.2
20260905190119 74 45 15.0 18.0 0.00 0.00 0.00 50 995.2
20260905185620 74 45 11.0 16.0 0.00 0.00 0.00 51 995.3
20260905185117 74 68 12.0 14.0 0.00 0.00 0.00 50 995.2
20260905184620 74 0 16.0 17.0 0.00 0.00 0.00 50 995.2
20260905184117 74 45 14.0 19.0 0.00 0.00 0.00 50 995.2
20260905183617 74 45 14.0 17.0 0.00 0.00 0.00 51 995.1
20260905183137 74 0 14.0 17.0 0.00 0.00 0.00 51 995.1
20260905182640 74 0 14.0 18.0 0.00 0.00 0.00 51 995.1
20260905182121 74 0 13.0 16.0 0.00 0.00 0.00 50 995.0
20260905181620 74 0 14.0 18.0 0.00 0.00 0.00 50 995.1
20260905181120 74 0 12.0 16.0 0.00 0.00 0.00 50 995.1
20260905180619 75 0 12.0 15.0 0.00 0.00 0.00 50 995.1
20260905180140 75 68 15.0 18.0 0.00 0.00 0.00 50 995.1
20260905175620 75 0 16.0 19.0 0.00 0.00 0.00 50 995.0
20260905175117 74 0 14.0 18.0 0.00 0.00 0.00 50 994.9
20260905174618 74 0 15.0 19.0 0.00 0.00 0.00 50 995.0
20260905174120 74 0 12.0 15.0 0.00 0.00 0.00 50 995.1
20260905173619 75 0 16.0 19.0 0.00 0.00 0.00 50 995.1
20260905173117 75 0 14.0 17.0 0.00 0.00 0.00 50 995.2
20260905172617 75 0 12.0 14.0 0.00 0.00 0.00 49 995.2
20260905172119 75 0 13.0 17.0 0.00 0.00 0.00 50 995.2
20260905171619 75 0 12.0 14.0 0.00 0.00 0.00 49 995.2
20260905171117 75 0 11.0 13.0 0.00 0.00 0.00 49 995.2
20260905170619 74 0 14.0 16.0 0.00 0.00 0.00 49 995.1
20260905170119 74 0 14.0 16.0 0.00 0.00 0.00 49 995.2
20260905165619 74 0 12.0 16.0 0.00 0.00 0.00 50 995.1
20260905165117 74 68 14.0 16.0 0.00 0.00 0.00 50 995.1
20260905164620 74 0 10.0 13.0 0.00 0.00 0.00 49 995.1
20260905164119 74 0 17.0 19.0 0.00 0.00 0.00 49 995.1
20260905163619 75 0 16.0 19.0 0.00 0.00 0.00 49 995.1
20260905163117 75 0 16.0 19.0 0.00 0.00 0.00 49 995.2
20260905162621 75 0 14.0 17.0 0.00 0.00 0.00 49 995.2
20260905162118 75 0 14.0 17.0 0.00 0.00 0.00 49 995.1
20260905161619 75 0 15.0 18.0 0.00 0.00 0.00 49 995.0
20260905161117 75 0 11.0 13.0 0.00 0.00 0.00 49 995.1
20260905160617 75 0 14.0 17.0 0.00 0.00 0.00 49 995.1
20260905160117 75 0 14.0 15.0 0.00 0.00 0.00 49 995.1
20260905155619 75 45 11.0 15.0 0.00 0.00 0.00 49 995.1
20260905155119 74 68 9.0 12.0 0.00 0.00 0.00 49 995.1
20260905154619 75 0 9.0 10.0 0.00 0.00 0.00 49 995.0
20260905154117 75 0 4.0 5.0 0.00 0.00 0.00 50 995.1
20260905153619 74 68 5.0 7.0 0.00 0.00 0.00 50 995.1
20260905153118 74 0 5.0 8.0 0.00 0.00 0.00 49 995.1
20260905152619 74 68 8.0 11.0 0.00 0.00 0.00 49 995.0
20260905152117 75 0 7.0 9.0 0.00 0.00 0.00 48 995.0
20260905151618 75 0 9.0 11.0 0.00 0.00 0.00 49 995.0
20260905151119 75 0 6.0 10.0 0.00 0.00 0.00 49 994.8
20260905150619 75 0 6.0 9.0 0.00 0.00 0.00 49 994.7
20260905150119 75 45 4.0 7.0 0.00 0.00 0.00 49 994.7
20260905145619 75 23 4.0 5.0 0.00 0.00 0.00 49 994.8
20260905145119 75 45 3.0 5.0 0.00 0.00 0.00 49 994.8
20260905144618 75 45 2.0 3.0 0.00 0.00 0.00 49 994.8
20260905144116 75 135 2.0 3.0 0.00 0.00 0.00 49 994.7
20260905143617 75 135 2.0 3.0 0.00 0.00 0.00 49 994.6
20260905143119 75 158 2.0 3.0 0.00 0.00 0.00 49 994.6
20260905142619 75 158 1.0 2.0 0.00 0.00 0.00 50 994.5
20260905142119 75 0.0 0.0 0.00 0.00 0.00 50 994.4
20260905141616 75 158 2.0 3.0 0.00 0.00 0.00 50 994.5
20260905141119 75 158 2.0 3.0 0.00 0.00 0.00 50 994.6
20260905140637 75 180 1.0 2.0 0.00 0.00 0.00 50 994.5
20260905140139 74 203 1.0 2.0 0.00 0.00 0.00 50 994.4
20260905135616 74 203 2.0 3.0 0.00 0.00 0.00 51 994.4
20260905135117 74 180 3.0 3.0 0.00 0.00 0.00 51 994.4
20260905134619 74 180 2.0 2.0 0.00 0.00 0.00 51 994.4
20260905134119 74 180 1.0 2.0 0.00 0.00 0.00 52 994.5
20260905133619 74 180 1.0 2.0 0.00 0.00 0.00 53 994.5
20260905133117 74 180 1.0 2.0 0.00 0.00 0.00 54 994.4
20260905132619 74 180 1.0 2.0 0.00 0.00 0.00 54 994.4
20260905132119 74 0.0 0.0 0.00 0.00 0.00 54 994.5
20260905131639 74 0.0 0.0 0.00 0.00 0.00 55 994.5
20260905131116 74 0.0 0.0 0.00 0.00 0.00 55 994.6
20260905130619 74 0.0 0.0 0.00 0.00 0.00 55 994.5
20260905130118 74 0.0 1.0 0.00 0.00 0.00 55 994.5
20260905125617 73 180 2.0 3.0 0.00 0.00 0.00 55 994.5
20260905125138 73 0.0 1.0 0.00 0.00 0.00 55 994.5
20260905124616 73 0.0 0.0 0.00 0.00 0.00 55 994.5
20260905124119 73 0.0 0.0 0.00 0.00 0.00 55 994.6
20260905123640 73 0.0 1.0 0.00 0.00 0.00 55 994.6
20260905123118 73 180 1.0 1.0 0.00 0.00 0.00 55 994.6
20260905122619 73 0.0 1.0 0.00 0.00 0.00 55 994.6
20260905122119 73 0.0 0.0 0.00 0.00 0.00 55 994.4
20260905121656 73 0.0 1.0 0.00 0.00 0.00 55 994.4
20260905121116 73 180 2.0 3.0 0.00 0.00 0.00 56 994.3
20260905120617 72 180 2.0 3.0 0.00 0.00 0.00 56 994.3
20260905120118 72 0.0 0.0 0.00 0.00 0.00 55 994.3
20260905115620 72 0.0 0.0 0.00 0.00 0.00 56 994.3
20260905115121 72 0.0 0.0 0.00 0.00 0.00 55 994.3
20260905114620 72 0.0 0.0 0.00 0.00 0.00 55 994.4
20260905114118 72 0.0 0.0 0.00 0.00 0.00 55 994.4
20260905113639 72 0.0 0.0 0.00 0.00 0.00 55 994.2
20260905113120 72 0.0 0.0 0.00 0.00 0.00 55 994.2
20260905112618 72 0.0 1.0 0.00 0.00 0.00 55 994.1
20260905112120 72 180 2.0 3.0 0.00 0.00 0.00 55 994.1
20260905111618 72 0.0 1.0 0.00 0.00 0.00 55 994.0
20260905111118 72 0.0 0.0 0.00 0.00 0.00 55 993.9
20260905110618 72 180 1.0 3.0 0.00 0.00 0.00 55 993.9
20260905110118 72 0.0 0.0 0.00 0.00 0.00 55 994.0
20260905105618 72 0.0 0.0 0.00 0.00 0.00 55 994.1
20260905105118 72 0.0 1.0 0.00 0.00 0.00 55 994.2
20260905104618 72 0.0 0.0 0.00 0.00 0.00 55 994.3
20260905104118 72 180 1.0 1.0 0.00 0.00 0.00 55 994.3
20260905103618 72 180 1.0 2.0 0.00 0.00 0.00 55 994.5
20260905103118 72 180 1.0 3.0 0.00 0.00 0.00 55 994.4
20260905102618 72 180 1.0 3.0 0.00 0.00 0.00 55 994.5
20260905102118 72 203 2.0 3.0 0.00 0.00 0.00 55 994.4
20260905101638 73 203 1.0 2.0 0.00 0.00 0.00 55 994.5
20260905101138 73 180 1.0 2.0 0.00 0.00 0.00 55 994.6
20260905100618 73 0 4.0 6.0 0.00 0.00 0.00 55 994.7
20260905100118 73 0 3.0 5.0 0.00 0.00 0.00 55 994.9
20260905095618 73 0 2.0 3.0 0.00 0.00 0.00 55 994.8
20260905095138 73 0 2.0 4.0 0.00 0.00 0.00 55 994.8
20260905094618 73 0 1.0 4.0 0.00 0.00 0.00 55 994.7
20260905094118 73 0 2.0 3.0 0.00 0.00 0.00 55 994.7
20260905093619 73 0.0 0.0 0.00 0.00 0.00 55 994.8
20260905093118 73 0.0 0.0 0.00 0.00 0.00 55 994.8
20260905092618 73 0.0 0.0 0.00 0.00 0.00 55 994.9
20260905092118 73 0.0 0.0 0.00 0.00 0.00 55 994.7
20260905091618 73 0.0 0.0 0.00 0.00 0.00 55 994.6
20260905091118 73 0.0 0.0 0.00 0.00 0.00 55 994.6
20260905090618 73 0.0 0.0 0.00 0.00 0.00 55 994.6
20260905090138 73 0.0 0.0 0.00 0.00 0.00 55 994.4
20260905085620 73 225 2.0 2.0 0.00 0.00 0.00 55 994.3
20260905085121 73 225 3.0 4.0 0.00 0.00 0.00 55 994.4
20260905084620 73 0 4.0 5.0 0.00 0.00 0.00 55 994.4
20260905084120 73 0 2.0 3.0 0.00 0.00 0.00 55 994.3
20260905083620 73 113 2.0 2.0 0.00 0.00 0.00 55 994.2
20260905083121 74 0.0 1.0 0.00 0.00 0.00 55 994.1
20260905082620 74 0.0 0.0 0.00 0.00 0.00 55 993.9
20260905082121 74 0.0 1.0 0.00 0.00 0.00 55 993.8
20260905081620 74 68 1.0 2.0 0.00 0.00 0.00 55 993.6
20260905081120 74 0 2.0 4.0 0.00 0.00 0.00 55 993.6
20260905080618 74 0 4.0 5.0 0.00 0.00 0.00 55 993.5
20260905080120 74 0 5.0 6.0 0.00 0.00 0.00 55 993.3
20260905075621 73 0 3.0 5.0 0.00 0.00 0.00 55 993.1
20260905075118 73 0.0 1.0 0.00 0.00 0.00 54 993.3
20260905074701 73 0.0 0.0 0.00 0.00 0.00 53 993.8
20260905074119 73 0.0 0.0 0.00 0.00 0.00 53 993.8
20260905073619 73 0.0 0.0 0.00 0.00 0.00 52 993.7
20260905073119 73 0.0 0.0 0.00 0.00 0.00 52 993.9
20260905072619 73 0.0 0.0 0.00 0.00 0.00 52 993.8
20260905072119 73 0.0 0.0 0.00 0.00 0.00 52 993.7
20260905071640 73 0.0 0.0 0.00 0.00 0.00 52 993.4
20260905071120 73 0.0 0.0 0.00 0.00 0.00 52 993.2
20260905070620 73 0.0 0.0 0.00 0.00 0.00 52 993.2
20260905070200 73 0 2.0 2.0 0.00 0.00 0.00 52 993.4
20260905065641 73 338 1.0 2.0 0.00 0.00 0.00 52 993.5
20260905065120 73 338 2.0 3.0 0.00 0.00 0.00 52 993.7
20260905064659 73 0 2.0 3.0 0.00 0.00 0.00 52 993.9
20260905064142 73 0 1.0 2.0 0.00 0.00 0.00 51 993.8
20260905063618 73 338 2.0 3.0 0.00 0.00 0.00 51 993.9
20260905063118 73 0 1.0 2.0 0.00 0.00 0.00 51 994.0
20260905062618 73 0 1.0 2.0 0.00 0.00 0.00 51 994.0
20260905062120 73 0.0 1.0 0.00 0.00 0.00 51 994.0
20260905061617 73 0 2.0 2.0 0.00 0.00 0.00 51 994.0
20260905061121 73 0 2.0 3.0 0.00 0.00 0.00 51 994.1
20260905060618 73 0 1.0 1.0 0.00 0.00 0.00 51 994.2
20260905060121 73 0.0 0.0 0.00 0.00 0.00 51 994.2
20260905055638 74 0.0 0.0 0.00 0.00 0.00 51 994.3
20260905055118 74 0.0 1.0 0.00 0.00 0.00 51 994.4
20260905054617 74 0 2.0 3.0 0.00 0.00 0.00 51 994.3
20260905054118 74 0.0 0.0 0.00 0.00 0.00 51 994.2
20260905053618 74 0.0 0.0 0.00 0.00 0.00 51 994.4
20260905053120 74 0.0 0.0 0.00 0.00 0.00 51 994.6
20260905052617 74 0.0 0.0 0.00 0.00 0.00 51 994.7
20260905052118 74 0.0 0.0 0.00 0.00 0.00 52 994.5
20260905051640 74 0.0 0.0 0.00 0.00 0.00 52 994.6
20260905051138 74 0.0 0.0 0.00 0.00 0.00 52 994.6
20260905050618 74 0.0 0.0 0.00 0.00 0.00 52 994.8
20260905050117 74 0.0 0.0 0.00 0.00 0.00 52 995.0
20260905045738 74 0.0 0.0 0.00 0.00 0.00 52 994.8
20260905045117 74 0.0 0.0 0.00 0.00 0.00 52 994.7
20260905044638 74 0.0 0.0 0.00 0.00 0.00 52 994.8
20260905044118 74 0.0 0.0 0.00 0.00 0.00 52 995.0
20260905043618 74 0.0 0.0 0.00 0.00 0.00 52 995.0
20260905043117 74 0.0 0.0 0.00 0.00 0.00 52 995.0
20260905042619 75 0.0 0.0 0.00 0.00 0.00 52 994.9
20260905042119 75 0.0 0.0 0.00 0.00 0.00 52 994.9
20260905041617 75 0.0 0.0 0.00 0.00 0.00 52 995.2
20260905041117 75 0.0 0.0 0.00 0.00 0.00 52 995.4
20260905040617 75 0.0 0.0 0.00 0.00 0.00 52 995.4
20260905040118 75 0 2.0 2.0 0.00 0.00 0.00 52 995.2
20260905035620 75 0 4.0 5.0 0.00 0.00 0.00 52 995.3
20260905035118 75 0 3.0 5.0 0.00 0.00 0.00 52 995.3
20260905034617 75 0 1.0 1.0 0.00 0.00 0.00 52 995.5
20260905034140 75 0.0 0.0 0.00 0.00 0.00 52 995.5
20260905033618 75 0 3.0 5.0 0.00 0.00 0.00 52 995.4
20260905033138 76 0 3.0 4.0 0.00 0.00 0.00 52 995.5
20260905032618 76 0 3.0 4.0 0.00 0.00 0.00 51 995.6
20260905032119 76 0 6.0 9.0 0.00 0.00 0.00 51 995.6
20260905031620 76 0 8.0 10.0 0.00 0.00 0.00 51 995.3
20260905031117 75 23 4.0 5.0 0.00 0.00 0.00 51 995.1
20260905030620 76 0 4.0 5.0 0.00 0.00 0.00 51 995.1
20260905030121 76 0.0 0.0 0.00 0.00 0.00 52 995.2
20260905025620 75 0.0 0.0 0.00 0.00 0.00 52 995.0
20260905025117 75 0.0 0.0 0.00 0.00 0.00 52 995.2
20260905024620 75 0.0 0.0 0.00 0.00 0.00 52 995.2
20260905024120 75 0.0 0.0 0.00 0.00 0.00 52 995.2
20260905023620 75 0.0 0.0 0.00 0.00 0.00 52 995.2
20260905023120 75 0.0 0.0 0.00 0.00 0.00 51 995.2
20260905022620 75 0.0 0.0 0.00 0.00 0.00 51 995.3
20260905022118 75 0.0 0.0 0.00 0.00 0.00 51 995.3
20260905021659 75 0.0 0.0 0.00 0.00 0.00 50 995.3
20260905021118 75 0.0 0.0 0.00 0.00 0.00 50 995.3
20260905020620 75 0.0 0.0 0.00 0.00 0.00 50 995.3
20260905020118 76 0.0 0.0 0.00 0.00 0.00 50 995.2
20260905015618 76 0.0 0.0 0.00 0.00 0.00 50 995.1
20260905015122 76 0.0 0.0 0.00 0.00 0.00 50 995.3
20260905014620 76 0.0 0.0 0.00 0.00 0.00 50 995.2
20260905014120 76 0.0 0.0 0.00 0.00 0.00 50 995.2
20260905013620 76 0.0 0.0 0.00 0.00 0.00 51 995.2
20260905013121 76 0.0 0.0 0.00 0.00 0.00 51 995.0
20260905012620 76 0.0 0.0 0.00 0.00 0.00 51 995.0
20260905012120 75 0.0 0.0 0.00 0.00 0.00 51 995.2
20260905011620 76 0.0 0.0 0.00 0.00 0.00 52 995.3
20260905011120 76 0.0 0.0 0.00 0.00 0.00 52 995.3
20260905010639 76 0.0 0.0 0.00 0.00 0.00 52 995.3
20260905010139 76 0.0 0.0 0.00 0.00 0.00 52 995.3
20260905005620 76 0.0 0.0 0.00 0.00 0.00 52 995.3
20260905005118 76 0.0 0.0 0.00 0.00 0.00 53 995.2
20260905004620 76 0.0 0.0 0.00 0.00 0.00 53 995.1
20260905004121 76 0.0 0.0 0.00 0.00 0.00 53 995.1
20260905003620 76 0.0 0.0 0.00 0.00 0.00 53 995.1
20260905003117 76 0.0 0.0 0.00 0.00 0.00 53 995.1
20260905002620 76 0.0 0.0 0.00 0.00 0.00 53 995.2
20260905002120 76 0.0 0.0 0.00 0.00 0.00 53 995.2
20260905001640 76 0.0 0.0 0.00 0.00 0.00 53 995.1
20260905001140 76 0.0 0.0 0.00 0.00 0.00 53 995.1
20260905000620 76 0.0 0.0 0.00 0.00 0.00 53 995.2
20260905000120 76 0.0 0.0 0.00 0.00 0.00 53 995.1
20260904235617 76 0.0 0.0 0.00 0.00 0.00 53 995.1
20260904235141 76 0.0 0.0 0.00 0.00 0.00 53 995.2
20260904234617 77 0.0 0.0 0.00 0.00 0.00 53 995.1
20260904234117 77 0.0 0.0 0.00 0.00 0.00 53 995.0
20260904233621 77 0.0 0.0 0.00 0.00 0.00 53 995.2
20260904233120 77 0.0 0.0 0.00 0.00 0.00 52 995.3